User: anonymous   Login
Location: Rometta
(44.2000°N, 10.0500°E)
Time: 15:33:05
(UTC+00:00)
Language:

CZ-4B R/B - Orbit

View from above orbital plane
View from above orbital plane
View from above satellite
View from above satellite

Ground track
Ground track

The orbit data is extracted from the following two-line orbital elements,

1 27432U 02024C   21107.94081133 -.00000020  00000-0  13720-4 0  9996
2 27432  99.0889 121.3258 0051054  38.4352  22.0047 14.14106816976688
Epoch (UTC): 17 April 2021 22:34:46
Eccentricity: 0.0051054
inclination: 99.0889°
perigee height: 808 km
apogee height: 882 km
right ascension of ascending node: 121.3258°
argument of perigee: 38.4352°
revolutions per day: 14.14106816
mean anomaly at epoch: 22.0047°
orbit number at epoch: 97668

The dashed part of the orbit path shows where the satellite is in the earth's shadow,  

DLR